Temp
59 59 58 57 55 54 60 73 65 88 90 67 68 64 70 66 74 78 75 73 72 70 71 66 60 63 68 79 76 64 67 59 54 62 75 78 71 62 62 51 51 57 52 55
59 59 58 56 54 54 56 64 73 89 86 62 67 70 76 76 76 74 74 72 73 72 65 56 63 67 78 80 72 61 65 56 49 58 64 70 66 67 60 61 58 53 53 52
60 59 58 56 55 55 56 64 65 74 76 77 72 70 71 71 80 76 76 73 73 70 65 67 60 66 76 79 75 71 68 57 52 47 51 62 60 67 68 59 51 54 58 59
60 60 58 57 55 55 55 67 69 76 67 70 72 71 71 73 70 76 74 69 73 67 59 63 63 70 68 74 71 71 63 53 56 62 66 67 66 67 69 61 58 52 59 62
60 60 59 57 56 55 60 63 67 76 72 73 70 62 67 71 72 70 68 67 74 70 61 63 60 65 59 63 68 62 61 53 56 57 66 66 64 67 67 66 60 57 64 60
59 59 60 58 56 55 66 73 75 70 66 70 67 68 71 73 72 74 76 73 69 68 70 72 70 70 70 65 60 58 56 53 52 47 60 61 55 60 61 64 63 57 53 60
59 59 60 59 58 57 59 66 67 65 64 70 70 77 77 73 70 67 75 73 65 71 79 76 73 68 70 68 62 65 57 53 53 46 51 41 54 65 67 64 64 64 61 64
59 59 60 60 58 59 57 64 64 65 61 70 73 76 75 73 68 70 73 75 71 73 69 60 56 56 57 60 62 64 68 58 50 46 42 48 58 60 59 57 56 66 63 62
59 59 59 60 59 59 57 64 68 66 62 66 74 70 75 66 64 67 73 76 75 69 61 58 48 43 48 48 52 60 58 57 51 49 46 39 50 62 65 65 50 65 64 59
58 59 59 59 59 59 57 60 65 65 61 71 73 69 68 73 68 64 69 71 67 71 57 53 50 46 55 42 46 47 47 47 46 48 43 49 59 60 64 50 50 67 67 62
58 59 59 59 59 59 57 60 66 65 64 70 76 80 73 72 69 61 67 66 66 61 55 55 54 49 48 50 55 50 46 44 44 46 42 40 63 62 54 57 62 67 65 62
58 58 59 59 59 59 59 57 71 73 66 69 78 83 85 82 78 70 68 65 65 65 59 58 58 54 56 53 47 55 48 51 50 48 46 58 62 61 60 66 61 64 63 62
57 58 58 59 58 59 59 57 62 65 65 69 73 74 81 86 85 85 64 67 71 67 68 60 59 57 59 51 54 57 59 61 54 52 55 58 66 67 68 69 67 69 68 64
57 58 58 58 58 58 59 57 63 63 66 62 69 86 78 86 85 83 80 74 74 72 67 60 57 55 63 55 57 55 59 60 57 56 57 60 65 66 68 69 70 70 69 66
57 57 57 58 58 58 58 60 63 67 62 59 64 77 82 84 80 80 78 74 70 65 61 59 57 60 59 60 58 55 62 57 52 49 59 58 60 66 69 68 68 70 66 64
57 57 57 57 58 58 58 60 67 70 69 63 60 70 73 79 79 76 73 71 68 66 63 61 62 66 59 52 50 60 65 65 64 59 65 64 66 67 70 67 69 70 67 64
56 57 57 57 57 58 58 60 63 58 59 64 56 56 70 78 76 73 71 72 68 67 63 61 62 59 59 53 47 60 63 65 66 67 65 62 66 63 69 70 71 70 66 62
56 57 57 57 57 55 58 68 62 60 64 66 58 56 63 77 67 64 71 67 67 64 63 64 60 58 57 45 57 60 63 66 66 66 66 64 65 67 68 69 69 66 64 61
57 57 57 58 56 61 66 65 60 64 64 59 62 58 49 73 68 68 67 68 59 66 60 60 60 46 38 51 57 59 62 61 62 66 67 67 64 65 66 66 67 64 62 61
56 57 58 58 65 63 67 66 63 61 64 64 60 66 59 64 65 64 62 64 59 55 59 62 56 52 58 60 61 61 63 65 65 61 59 61 60 62 62 63 65 65 63 61
60 60 59 65 63 68 65 59 58 59 56 62 64 64 61 66 60 61 64 58 59 51 57 56 53 53 59 63 62 63 65 66 65 65 65 65 63 63 63 64 66 66 64 61
54 54 55 61 64 60 58 56 59 58 56 62 62 63 65 60 66 62 62 59 59 52 63 57 50 57 60 63 64 64 65 67 68 68 66 66 67 65 64 63 63 64 64 64
58 54 52 52 56 45 51 50 54 55 62 65 65 62 63 62 62 62 61 57 54 64 56 53 56 59 62 62 63 64 66 68 68 67 68 68 66 66 64 63 62 62 61 61
52 50 40 46 47 54 55 58 61 66 66 67 66 65 64 65 62 62 57 61 62 55 51 54 59 59 61 62 64 64 64 66 66 66 66 66 64 64 65 64 61 61 59 61
49 49 41 49 57 59 60 64 65 67 69 66 66 66 66 61 61 62 61 58 55 56 54 60 63 62 61 62 63 64 64 65 64 64 64 64 64 63 62 64 64 61 59 60
49 49 48 55 54 55 59 60 62 68 67 67 64 63 61 61 61 60 58 57 54 59 61 63 63 62 62 62 64 65 66 64 64 64 64 63 62 62 60 61 61 60 60 59
48 48 55 51 50 52 56 60 58 64 61 57 60 58 58 65 60 59 63 59 62 65 65 67 63 63 63 65 66 66 65 64 63 63 63 62 63 63 63 58 59 60 59 58
MSLP
1019.13 1018.64 1018.12 1017.51 1016.86 1015.14 1013.59 1012.65 1009.97 1006.09 1005.92 1007.11 1007.12 1006.70 1005.72 1005.50 1004.98 1004.65 1004.60 1004.61 1004.68 1005.19 1005.36 1005.79 1006.15 1006.03 1005.36 1004.75 1004.41 1004.95 1005.24 1004.80 1004.65 1003.60 1002.78 1002.41 1002.92 1003.71 1004.67 1006.26 1007.05 1007.58 1008.19 1008.34
1019.01 1018.53 1018.21 1017.77 1017.35 1016.96 1016.20 1013.66 1009.74 1006.31 1005.91 1006.66 1006.19 1005.56 1005.33 1005.26 1005.04 1005.09 1005.16 1005.19 1005.39 1005.46 1005.69 1006.53 1006.56 1006.01 1005.59 1005.17 1005.51 1006.11 1006.19 1005.93 1005.66 1004.69 1003.94 1003.32 1003.90 1004.19 1004.69 1005.56 1005.96 1006.71 1007.20 1007.10
1018.89 1018.43 1018.16 1017.80 1017.48 1017.28 1016.87 1014.11 1009.89 1006.88 1006.13 1006.06 1005.95 1005.57 1005.03 1005.06 1005.23 1005.31 1005.59 1005.69 1005.67 1005.68 1005.77 1005.81 1006.45 1006.19 1005.87 1005.77 1006.01 1006.24 1006.47 1006.99 1007.33 1007.05 1006.23 1005.69 1005.27 1005.12 1005.32 1006.19 1006.80 1006.90 1006.36 1006.72
1018.82 1018.37 1018.06 1017.63 1017.17 1016.81 1016.89 1013.58 1009.88 1007.94 1006.95 1005.96 1005.81 1005.40 1005.58 1005.19 1005.31 1005.56 1005.75 1005.91 1005.93 1006.24 1006.46 1006.65 1006.62 1006.89 1006.35 1006.57 1006.78 1006.78 1007.17 1007.76 1007.77 1007.19 1006.51 1006.14 1006.07 1005.97 1006.20 1007.12 1007.73 1007.43 1006.55 1006.65
1018.73 1018.29 1017.92 1017.55 1016.93 1016.15 1015.57 1013.13 1010.32 1008.59 1007.61 1006.21 1006.00 1005.84 1005.62 1005.64 1005.93 1006.27 1006.55 1006.59 1006.42 1006.55 1006.92 1007.05 1007.33 1007.15 1007.12 1007.09 1007.23 1007.63 1008.20 1008.61 1008.59 1008.19 1007.53 1007.19 1007.29 1007.17 1007.29 1007.64 1008.29 1007.72 1007.17 1007.90
1018.62 1018.23 1017.83 1017.51 1017.09 1016.25 1014.78 1012.55 1010.93 1009.86 1008.15 1007.01 1006.24 1005.77 1005.70 1006.07 1006.47 1006.73 1006.82 1007.06 1007.11 1007.12 1007.21 1007.18 1007.33 1007.38 1007.35 1007.42 1007.96 1008.44 1008.87 1009.26 1009.53 1009.44 1008.90 1008.65 1008.82 1009.41 1009.21 1009.38 1009.85 1010.56 1009.81 1009.73
1018.44 1018.08 1017.74 1017.47 1017.33 1017.31 1016.73 1014.44 1013.07 1011.17 1009.31 1007.87 1006.75 1005.93 1005.78 1006.33 1007.07 1007.30 1006.97 1007.13 1007.48 1007.85 1007.51 1007.46 1007.30 1007.54 1007.82 1008.66 1008.86 1008.69 1009.13 1009.67 1010.06 1010.36 1010.27 1010.67 1011.21 1011.09 1010.99 1010.71 1011.29 1011.10 1011.55 1011.51
1018.17 1017.86 1017.58 1017.33 1017.18 1017.10 1016.87 1015.15 1013.97 1012.17 1010.41 1008.75 1007.23 1006.47 1006.01 1006.45 1007.15 1007.28 1007.26 1007.25 1007.64 1007.78 1007.97 1008.25 1008.51 1008.94 1009.43 1010.13 1010.14 1009.99 1009.39 1010.35 1010.67 1011.12 1011.93 1012.38 1011.40 1011.62 1011.96 1012.00 1012.14 1011.57 1012.08 1012.52
1017.83 1017.56 1017.32 1017.12 1016.89 1016.76 1016.42 1014.79 1013.91 1012.98 1011.35 1008.94 1007.91 1007.33 1006.24 1006.41 1006.80 1007.18 1007.10 1007.32 1007.49 1007.91 1008.36 1008.93 1009.66 1011.16 1012.33 1012.92 1012.08 1010.65 1011.17 1011.27 1011.84 1011.93 1012.34 1012.80 1012.41 1012.38 1012.17 1012.05 1012.98 1012.71 1012.91 1013.48
1017.52 1017.24 1017.11 1016.95 1016.68 1016.49 1016.47 1014.75 1013.64 1012.91 1011.69 1009.07 1008.36 1007.58 1006.42 1006.19 1006.63 1007.04 1007.26 1007.39 1007.61 1007.89 1008.80 1009.57 1010.29 1011.74 1012.52 1013.29 1013.04 1012.36 1012.41 1012.67 1012.84 1012.80 1012.92 1012.90 1012.75 1012.53 1012.05 1012.07 1013.59 1012.71 1012.67 1013.29
1017.19 1016.94 1016.81 1016.74 1016.51 1016.36 1016.14 1014.21 1013.03 1012.93 1011.58 1009.56 1008.26 1006.93 1006.20 1006.21 1006.75 1007.35 1007.57 1007.71 1007.80 1008.31 1009.13 1009.55 1009.94 1011.26 1012.37 1012.33 1011.87 1012.12 1012.76 1013.17 1013.28 1013.70 1013.72 1013.82 1012.66 1012.19 1012.37 1012.68 1012.30 1012.13 1012.53 1013.04
1016.79 1016.54 1016.37 1016.39 1016.30 1016.21 1016.02 1014.66 1012.10 1011.97 1011.65 1009.71 1008.30 1007.03 1006.25 1006.33 1006.62 1007.07 1007.37 1007.91 1008.09 1008.32 1009.17 1009.69 1009.81 1010.29 1010.73 1011.23 1011.55 1011.58 1012.24 1012.37 1012.59 1013.64 1013.54 1012.81 1012.25 1012.05 1012.17 1011.84 1012.23 1012.31 1012.41 1013.37
1016.32 1016.09 1015.95 1015.93 1015.99 1015.95 1015.90 1015.13 1013.83 1012.32 1011.28 1009.68 1008.19 1006.79 1006.47 1006.45 1006.41 1006.56 1007.51 1007.80 1008.10 1008.60 1008.90 1009.67 1009.95 1009.96 1010.10 1010.75 1011.04 1011.15 1011.29 1011.20 1011.90 1012.89 1013.29 1012.84 1011.87 1011.67 1011.62 1011.91 1012.36 1012.25 1012.51 1013.25
1015.87 1015.69 1015.54 1015.57 1015.58 1015.61 1015.63 1015.03 1013.63 1013.24 1011.65 1009.79 1007.85 1006.47 1006.41 1006.49 1006.70 1006.87 1007.31 1007.87 1008.12 1008.57 1008.97 1009.75 1010.06 1010.16 1009.85 1010.13 1010.38 1010.66 1010.62 1010.70 1011.24 1011.76 1012.47 1012.44 1011.76 1011.64 1011.63 1011.86 1012.13 1012.23 1012.52 1013.41
1015.39 1015.29 1015.23 1015.18 1015.17 1015.23 1015.11 1014.58 1013.25 1012.67 1012.76 1010.67 1009.07 1007.29 1006.52 1006.65 1007.05 1007.27 1007.56 1007.92 1008.45 1009.00 1009.42 1009.76 1009.99 1010.09 1010.35 1010.33 1010.54 1010.68 1010.45 1010.59 1011.00 1011.83 1011.78 1011.70 1011.92 1011.79 1011.86 1011.86 1012.05 1012.28 1013.06 1014.23
1015.00 1014.90 1014.85 1014.82 1014.86 1014.93 1014.67 1013.44 1011.52 1011.85 1012.16 1011.28 1009.78 1008.50 1007.50 1006.86 1007.25 1007.64 1008.01 1008.35 1008.75 1009.06 1009.37 1009.49 1009.83 1010.23 1010.58 1011.08 1011.16 1010.69 1010.09 1010.35 1010.52 1011.21 1011.20 1011.49 1011.55 1011.69 1011.71 1011.95 1012.23 1012.65 1013.38 1014.20
1014.69 1014.58 1014.53 1014.52 1014.58 1014.61 1014.01 1013.13 1012.09 1011.87 1012.65 1011.23 1010.53 1009.93 1008.03 1007.31 1007.51 1007.97 1008.40 1008.47 1008.77 1009.00 1009.29 1009.46 1009.78 1010.71 1010.97 1011.44 1011.55 1010.83 1010.65 1010.52 1010.63 1010.88 1011.14 1011.42 1011.44 1011.55 1011.53 1011.80 1012.13 1012.65 1013.59 1014.92
1014.52 1014.40 1014.29 1014.25 1014.30 1014.30 1013.36 1011.13 1010.95 1011.78 1011.87 1010.80 1010.10 1010.25 1008.88 1007.23 1007.73 1008.17 1008.11 1008.55 1008.72 1008.95 1009.23 1009.48 1010.10 1011.01 1011.39 1011.80 1011.26 1010.79 1010.57 1010.33 1010.49 1010.78 1011.00 1011.14 1011.23 1011.35 1011.66 1011.87 1012.21 1012.65 1013.63 1015.06
1014.31 1014.17 1014.05 1013.96 1013.89 1012.65 1010.92 1010.45 1010.85 1011.05 1011.63 1010.42 1008.89 1008.53 1009.31 1007.69 1007.86 1007.95 1008.00 1008.13 1008.64 1008.53 1009.09 1009.41 1010.01 1011.59 1012.14 1011.45 1011.21 1010.99 1010.69 1010.41 1010.51 1010.72 1011.01 1011.23 1011.41 1011.53 1011.76 1012.11 1012.33 1012.80 1013.49 1014.45
1014.13 1013.94 1013.59 1012.42 1011.02 1010.46 1010.46 1010.70 1010.79 1010.79 1010.17 1009.58 1008.73 1008.12 1008.63 1008.45 1007.94 1007.84 1008.41 1008.42 1008.73 1008.77 1008.90 1009.07 1009.62 1010.55 1010.49 1010.49 1010.50 1010.47 1010.35 1010.25 1010.46 1010.67 1011.00 1011.25 1011.57 1011.76 1011.95 1012.21 1012.45 1012.89 1013.42 1014.22
1013.78 1013.19 1012.43 1011.13 1010.55 1010.47 1010.38 1010.19 1010.03 1009.64 1008.96 1008.13 1007.60 1007.89 1008.19 1008.08 1008.29 1007.96 1008.25 1008.57 1008.74 1008.74 1008.63 1008.99 1009.32 1009.46 1009.30 1009.42 1010.04 1010.12 1010.16 1010.21 1010.47 1010.61 1010.90 1011.21 1011.54 1011.83 1012.09 1012.31 1012.46 1012.76 1013.31 1014.18
1014.48 1014.49 1013.40 1012.14 1010.87 1010.37 1009.83 1009.12 1008.71 1007.95 1007.53 1006.68 1006.78 1007.50 1007.91 1008.54 1007.99 1007.74 1008.23 1008.29 1008.53 1008.30 1008.02 1008.64 1008.71 1008.72 1008.65 1009.10 1009.59 1009.81 1010.02 1010.19 1010.47 1010.66 1011.06 1011.39 1011.76 1012.05 1012.29 1012.55 1012.77 1012.98 1013.31 1013.66
1013.89 1014.18 1013.61 1012.52 1011.13 1010.10 1009.06 1007.70 1006.89 1006.41 1005.76 1005.70 1005.80 1006.67 1007.57 1008.34 1008.15 1007.71 1007.88 1007.97 1008.02 1007.61 1007.60 1007.77 1008.02 1008.40 1008.70 1008.99 1009.27 1009.64 1009.79 1010.07 1010.35 1010.70 1011.06 1011.51 1011.93 1012.29 1012.62 1012.92 1013.13 1013.43 1013.90 1014.14
1013.82 1013.67 1013.45 1012.45 1010.91 1009.11 1008.10 1007.14 1006.31 1005.80 1005.27 1005.26 1005.26 1005.82 1006.41 1006.75 1007.42 1007.43 1007.61 1007.32 1007.03 1006.87 1006.91 1007.06 1007.37 1007.77 1008.25 1008.55 1008.86 1009.17 1009.53 1009.91 1010.31 1010.70 1011.13 1011.63 1012.11 1012.47 1012.81 1013.32 1013.46 1013.89 1014.29 1014.55
1013.77 1013.48 1012.47 1011.13 1009.48 1008.23 1007.76 1007.15 1006.45 1005.42 1004.88 1005.17 1005.05 1005.22 1005.55 1006.15 1006.53 1006.39 1006.41 1006.26 1006.03 1005.97 1005.94 1006.03 1006.46 1007.09 1007.67 1008.14 1008.52 1008.87 1009.22 1009.64 1010.11 1010.47 1011.05 1011.59 1012.09 1012.53 1012.75 1013.00 1013.28 1013.78 1014.35 1014.74
1013.66 1012.92 1011.68 1010.07 1009.41 1008.39 1007.97 1007.39 1006.55 1005.83 1005.05 1004.82 1004.98 1004.91 1004.94 1005.01 1005.22 1005.42 1005.26 1005.31 1004.99 1004.94 1004.92 1005.34 1005.94 1006.71 1007.15 1007.57 1007.95 1008.27 1008.50 1008.95 1009.47 1010.08 1010.69 1011.26 1011.81 1012.33 1012.75 1013.17 1013.51 1013.87 1014.24 1014.69
1012.78 1011.41 1010.35 1010.07 1009.62 1008.98 1008.19 1007.73 1007.61 1006.97 1006.29 1005.99 1005.85 1005.36 1005.40 1004.30 1004.25 1004.38 1004.36 1004.44 1004.35 1004.41 1004.76 1005.17 1005.79 1006.55 1007.02 1007.37 1007.65 1007.78 1008.05 1008.56 1009.07 1009.67 1010.25 1010.81 1011.30 1011.81 1012.47 1013.14 1013.51 1013.75 1014.09 1014.42
Wind_Speed
21 22 19 18 21 30 3 5 4 6 5 1 4 6 2 3 1 1 4 4 4 6 6 5 5 6 4 11 11 5 8 3 6 9 6 9 7 5 6 4 9 2 5 5
20 21 18 16 14 15 6 4 7 8 4 4 8 2 5 1 7 8 7 7 9 6 5 5 5 3 6 9 7 4 7 6 6 10 10 8 5 6 4 4 2 6 3 6
19 20 17 16 13 7 5 4 5 3 3 7 10 7 4 5 4 3 4 6 7 7 5 6 5 4 2 5 4 4 4 3 1 2 1 4 6 9 11 6 2 6 7 5
19 18 18 16 15 12 2 4 5 9 7 2 7 5 7 5 1 4 2 2 5 8 5 8 8 2 1 9 4 6 2 4 6 9 2 3 8 8 9 11 17 4 3 9
16 19 19 15 17 21 3 4 4 8 10 5 3 2 4 4 11 7 7 8 11 4 7 7 7 9 3 2 5 3 5 5 7 8 11 11 11 14 13 15 22 18 7 9
15 15 17 13 15 14 4 5 6 4 8 8 2 3 4 9 7 4 2 5 7 8 9 8 6 7 9 3 3 1 1 1 3 4 8 8 8 16 18 12 16 6 9 6
15 14 15 11 11 9 5 4 4 3 8 9 7 6 8 10 8 3 7 4 4 5 9 8 8 5 8 11 4 4 3 0 2 1 6 1 3 14 16 16 13 13 13 13
15 14 12 13 8 9 4 5 4 4 6 10 14 12 5 9 6 4 8 6 3 5 6 3 3 4 7 9 9 12 12 5 4 4 3 4 1 7 12 7 8 13 7 4
14 14 11 11 9 11 5 6 6 4 3 6 16 16 5 3 3 6 4 6 2 3 2 2 2 3 1 4 12 6 8 7 3 5 1 4 1 7 7 5 4 10 7 3
14 13 12 13 11 8 5 6 3 4 3 9 10 12 4 2 2 1 2 5 2 5 1 3 3 2 5 4 4 3 4 4 1 5 2 2 2 6 5 5 5 4 7 5
13 12 11 11 12 8 4 9 8 3 3 10 11 15 2 3 4 2 0 4 2 3 1 1 0 5 8 4 5 5 5 3 1 2 4 3 1 4 4 5 4 2 7 6
14 13 11 10 10 7 4 5 4 6 3 6 14 9 6 6 4 2 4 3 3 1 4 4 4 3 3 3 2 1 2 6 5 6 6 6 7 4 5 4 4 7 6 7
14 13 12 9 9 7 4 5 6 4 3 6 6 4 2 7 2 4 4 3 5 5 3 1 3 2 2 0 2 4 5 2 4 6 2 5 4 7 8 6 5 5 10 9
13 13 12 10 9 7 5 4 3 3 6 3 6 8 7 5 6 6 5 3 4 2 2 1 2 1 2 0 4 2 4 2 3 3 10 10 8 7 6 6 5 7 12 12
13 12 11 9 8 7 6 7 6 6 3 3 5 11 5 6 1 4 2 3 3 1 1 2 3 3 4 3 3 3 3 1 3 3 5 7 5 6 2 4 5 6 12 11
11 10 9 8 5 4 3 4 4 3 2 3 3 5 6 6 8 4 3 3 2 2 1 3 3 2 3 1 0 6 5 7 7 4 6 7 7 5 2 4 6 7 11 14
8 7 6 5 4 3 5 3 2 6 3 3 3 7 7 5 7 2 2 3 2 2 2 2 3 2 3 2 2 3 6 6 7 6 3 3 2 2 7 4 3 3 12 12
6 5 5 4 3 7 7 6 14 4 4 3 4 5 5 6 3 3 4 4 4 2 3 0 1 2 3 1 4 4 2 1 7 6 1 2 0 6 6 2 1 4 12 13
5 4 4 2 3 4 3 7 9 2 2 3 3 5 3 3 4 4 1 2 1 2 3 3 3 3 3 7 5 4 6 3 4 6 5 5 3 6 6 5 4 5 6 10
6 3 4 4 4 8 4 2 2 3 4 4 4 2 4 3 3 2 3 2 2 3 5 3 2 5 6 9 8 7 6 7 3 4 5 4 0 3 3 2 1 3 2 8
3 3 2 4 2 2 3 4 4 4 4 4 3 2 4 3 3 4 4 3 2 2 5 5 3 3 6 11 9 7 7 7 4 2 5 5 3 1 2 5 5 1 4 8
1 4 5 4 3 4 5 4 5 6 5 4 9 5 5 1 4 3 1 3 2 4 4 3 3 3 6 10 8 8 7 7 6 5 5 4 1 2 3 3 4 4 4 3
2 2 3 2 4 0 6 9 5 4 4 5 6 7 5 4 3 2 2 2 5 3 3 3 4 6 7 8 8 8 7 7 6 6 7 5 4 3 1 3 5 8 8 8
1 2 2 3 5 6 6 5 5 5 3 7 4 8 5 4 5 3 4 5 3 4 5 6 5 9 8 7 8 9 9 8 7 8 7 7 5 4 5 6 7 7 7 7
2 2 4 8 8 8 8 6 9 5 5 1 5 5 3 4 4 4 2 4 4 4 5 5 8 12 10 9 8 8 8 8 7 8 7 7 7 5 4 6 7 8 7 7
1 4 5 6 5 8 6 8 6 6 2 0 2 6 5 4 5 5 7 4 5 5 4 5 10 12 10 8 8 8 8 8 8 8 8 8 8 7 8 7 7 7 7 6
5 6 7 6 5 7 4 4 3 6 1 1 3 6 10 4 4 8 6 8 4 1 6 7 8 9 8 7 7 7 8 8 9 9 8 8 8 7 7 8 7 7 7 7
Wind_Direction
342 343 342 347 347 335 351 305 284 254 122 179 210 242 7 304 223 198 327 274 352 14 331 45 66 7 323 349 352 26 360 292 322 287 261 191 215 224 207 127 289 151 133 241
340 343 341 343 356 9 316 299 278 286 148 259 289 162 171 219 23 10 4 351 3 351 334 124 168 211 326 342 45 33 326 336 347 337 359 4 11 332 316 286 276 275 167 252
338 342 341 339 343 347 312 280 286 208 185 233 256 274 256 142 142 233 37 323 326 319 340 326 185 153 355 356 101 29 4 307 323 240 316 298 310 335 340 6 310 255 245 170
337 337 340 337 334 330 277 234 275 328 302 265 345 46 5 6 55 65 344 255 268 23 357 25 5 140 138 3 333 358 5 292 307 308 253 304 313 325 309 21 1 308 273 150
332 334 336 338 336 330 217 281 347 318 298 296 308 112 207 353 66 46 357 8 357 359 7 43 25 4 93 223 352 36 357 324 356 306 6 3 357 15 23 38 19 353 27 65
325 325 331 339 345 336 315 339 327 311 286 304 248 246 104 86 66 116 221 0 332 1 20 355 348 315 304 134 121 285 10 93 358 305 28 353 61 14 20 58 39 11 12 340
320 319 322 334 348 9 307 284 301 291 298 313 306 352 83 85 69 6 332 97 316 5 348 330 309 257 277 39 7 210 241 253 291 233 36 224 232 23 31 62 34 41 52 17
313 315 313 323 335 342 301 307 301 322 308 315 313 309 152 121 140 210 262 89 48 322 306 304 258 20 21 355 333 1 29 350 324 106 93 317 124 29 19 14 1 9 43 62
311 310 308 318 325 333 298 274 271 273 312 264 333 326 254 133 239 186 219 105 147 315 278 285 223 77 139 323 315 62 26 25 54 341 142 196 338 12 356 301 29 13 93 241
309 310 311 314 319 328 319 282 303 283 280 279 299 319 17 54 37 137 168 147 211 175 261 301 128 138 109 174 205 282 11 0 271 316 97 90 347 284 277 122 175 290 148 209
303 299 297 303 314 323 334 282 273 231 276 292 292 298 14 40 39 46 321 13 296 303 230 242 344 131 213 201 153 177 166 118 5 15 38 341 253 333 79 229 276 118 119 112
295 290 287 291 305 304 339 280 328 341 226 275 314 306 39 56 41 63 352 152 201 290 42 0 2 31 127 194 306 277 148 184 161 148 210 227 187 191 221 52 38 346 103 127
290 283 282 285 292 288 278 293 319 306 236 279 260 263 322 318 340 44 88 352 16 38 112 42 279 57 77 92 128 315 63 190 90 124 175 323 207 120 93 64 29 20 80 136
286 279 275 279 283 278 271 266 310 284 275 240 272 303 176 232 58 46 27 313 44 359 66 214 237 279 23 141 158 125 173 131 118 24 171 205 75 77 51 100 80 50 69 104
283 275 274 275 281 286 278 258 251 228 285 315 301 324 147 170 204 138 199 45 47 279 252 241 243 80 30 355 44 334 91 355 116 157 138 118 139 116 359 53 77 87 110 105
284 273 265 268 276 313 286 265 203 223 256 262 256 335 292 196 126 150 112 221 218 237 252 291 87 88 111 93 108 355 56 76 96 112 86 116 139 103 120 339 59 64 125 130
290 269 258 261 255 245 235 291 306 351 328 253 45 329 289 188 133 152 172 214 230 192 309 265 124 97 92 80 217 53 5 108 96 73 99 117 314 216 170 132 113 83 119 131
295 282 269 256 265 272 282 245 239 160 258 269 158 213 246 179 168 202 202 188 199 185 205 46 110 94 47 254 271 329 261 180 125 131 228 86 103 97 78 103 345 284 144 134
307 293 297 257 207 230 228 99 119 203 248 270 249 136 319 246 221 186 145 166 279 187 164 237 124 70 204 217 214 268 272 116 146 152 184 191 269 174 168 233 209 286 136 152
299 266 213 214 186 116 129 78 199 202 233 225 249 82 193 107 231 203 106 61 248 184 231 121 172 220 209 195 192 204 218 155 197 201 177 130 46 346 318 297 231 261 63 161
238 249 329 347 230 203 206 224 195 201 228 220 201 222 132 200 241 169 151 183 210 247 233 149 234 250 224 172 178 209 158 152 186 129 103 100 78 53 249 241 257 66 51 168
284 293 287 281 244 226 218 203 214 183 221 196 186 192 169 231 318 101 192 166 191 255 161 170 247 227 147 152 167 150 147 161 179 146 125 97 82 24 25 356 351 65 27 16
172 158 334 23 266 285 224 212 189 205 165 202 161 185 130 134 318 50 166 205 208 235 204 216 208 156 155 161 147 154 163 178 183 155 135 134 133 99 360 267 30 78 79 73
10 143 195 240 221 214 228 240 228 223 241 207 191 177 157 175 177 143 196 221 211 219 203 214 175 169 162 153 160 153 173 182 180 152 145 145 148 151 237 137 115 98 94 88
192 195 230 225 254 297 297 302 292 272 221 75 208 166 158 149 179 197 171 226 208 226 224 224 165 164 157 163 170 170 173 177 170 150 154 159 157 192 226 133 125 119 115 113
268 240 248 255 267 279 278 278 284 296 333 335 33 190 188 161 160 202 196 213 215 226 172 138 141 157 166 167 177 184 176 171 161 154 158 164 163 192 152 157 139 144 145 137
215 232 230 258 294 283 295 320 1 321 43 1 336 149 219 164 197 211 193 230 218 282 137 141 143 155 165 174 182 185 171 164 157 158 163 166 171 167 150 150 169 149 159 156